Starlink 5291

operational
NORAD ID: 55273 Int'l Des: 2023-010 Owner: SPXS Country: US Constellation: starlink
LEOCIRCULAR

关于 Starlink 5291

正在加载描述...

实时位置

正在加载3D地球...

即将过境

高度历史

Altitude vs Time

uPlot chart will show altitude changes over time

两行轨道根数

1 55273U 23010E 26036.67252093 .00000453 00000-0 45790-4 0 9990
2 55273 70.0004 125.0470 0003080 267.9796 92.1010 14.98334461167999
Epoch: Feb 5, 2026 • Age: 13 hours

当前状态

高度 585.4 km
速度 7.57 km/s
星下点 68.83°N, 17.26°E
发射日期 Jan 19, 2023
运行时间 3 years
类型 internet

技术详情

分类 Payload
质量 305.00 kg
干质量 290.00 kg
总质量 305.00 kg
长度 0.20 m
直径 2.80 m
跨度 9.00 m
形状 Box + pan
制造商 SPXS
平台类型 Starlink
阶段状态 In Orbit
所有者/国家 SPXS/US

大型星座

Loading constellations...